Location: Days
(41.3591°N, 106.7339°W)
Time: 19:56:59
(UTC+00:00)

AIST 2D - Pass Details

Date: 01 July 2022
Orbit: 433 x 443 km, 97.0° (Epoch: 17 August)

Event Time Altitude Azimuth Distance (km) Brightness Sun altitude
Rises 03:36:56 0° 36° (NE) 2,423 ? -8.7°
Reaches altitude 10° 03:40:19 10° 74° (ENE) 1,549 ? -9.2°
Maximum altitude 03:41:18 11° 91° (E) 1,488 ? -9.3°
Enters shadow 03:42:00 11° 104° (ESE) 1,519 ? -9.4°
